Grants-Milan, NM

5:32 AM MDT on April 25, 2017 (GMT -0600)
Grants-Milan Municipal

Weather History for KGNT - November, 2011

Change the Weather History Date:

Sunday, November 20, 2011

  Actual Average Record
Temperature  
Mean Temperature 44 °F -  
Max Temperature 60 °F 54 °F 70 °F (1955)
Min Temperature 28 °F 19 °F -3 °F (1956)
Degree Days  
Heating Degree Days 21    
Moisture  
Dew Point 20 °F    
Average Humidity 44    
Maximum Humidity 64    
Minimum Humidity 20    
Precipitation  
Precipitation 0.00 in - - ()
Sea Level Pressure  
Sea Level Pressure 30.00 in    
Wind  
Wind Speed 4 mph (West)    
Max Wind Speed 13 mph    
Max Gust Speed 21 mph    
Averages and records for this station are not official NWS values.
T = Trace of Precipitation, MM = Missing Value Source: NWS Daily Summary

Daily Weather History Graph

Daily Weather History Graph

Search for Another Location

Airport or City:

Trip Planner

Search our weather history database for the weather conditions in past years. The results will help you decide how hot, cold, wet, or windy it might be!

Date:

Astronomy

Nov. 20, 2011 Rise Set
Actual Time 6:51 AM MST 5:02 PM MST
Civil Twilight 6:23 AM MST 5:30 PM MST
Nautical Twilight 5:52 AM MST 6:01 PM MST
Astronomical Twilight 5:22 AM MST 6:31 PM MST
Moon 1:33 AM MST (11/20) 1:44 PM MST (11/20)
Length of Visible Light 11h 06m
Length of Day
10h 11m
Waning Crescent, 26% of the Moon is Illuminated
Nov 20
Waning Crescent
Nov 24
New
Dec 2
First Quarter
Dec 10
Full
Dec 17
Last Quarter

Hourly Weather History & Observations

Time (MST) Temp. Windchill Dew Point Humidity Pressure Visibility Wind Dir Wind Speed Gust Speed Precip Events Conditions
12:53 AM 33.1 °F - 18.0 °F 54% 29.93 in - Calm Calm - N/A   Unknown
1:53 AM 30.9 °F 26.2 °F 18.0 °F 59% 29.92 in - NW 4.6 mph - N/A   Unknown
2:53 AM 33.1 °F 30.0 °F 18.0 °F 54% 29.94 in - West 3.5 mph - N/A   Unknown
3:53 AM 32.0 °F 28.7 °F 18.0 °F 56% 29.95 in - North 3.5 mph - N/A   Unknown
4:53 AM 30.9 °F 25.2 °F 18.0 °F 59% 29.99 in - NW 5.8 mph - N/A   Unknown
5:53 AM 32.0 °F 28.7 °F 18.0 °F 56% 30.02 in - WNW 3.5 mph - N/A   Unknown
6:53 AM 28.9 °F 25.2 °F 18.0 °F 64% 30.07 in - NW 3.5 mph - N/A   Unknown
7:53 AM 34.0 °F - 19.0 °F 54% 30.08 in - Calm Calm - N/A   Unknown
8:53 AM 41.0 °F - 21.0 °F 45% 30.07 in - Calm Calm - N/A   Unknown
9:53 AM 48.0 °F - 21.9 °F 36% 30.05 in - SE 8.1 mph - N/A   Unknown
10:53 AM 52.0 °F - 25.0 °F 35% 30.02 in - SE 8.1 mph - N/A   Unknown
11:53 AM 55.0 °F - 25.0 °F 31% 29.99 in - SSE 11.5 mph - N/A   Unknown
12:53 PM 55.9 °F - 24.1 °F 29% 29.96 in - SE 9.2 mph - N/A   Unknown
1:53 PM 57.9 °F - 19.9 °F 23% 29.94 in - WSW 9.2 mph - N/A   Unknown
2:53 PM 60.1 °F - 19.0 °F 20% 29.92 in - SSW 12.7 mph 17.3 mph N/A   Unknown
3:53 PM 57.9 °F - 17.1 °F 20% 29.94 in - South 9.2 mph 20.7 mph N/A   Unknown
4:53 PM 54.0 °F - 18.0 °F 24% 29.96 in - South 6.9 mph - N/A   Unknown
5:53 PM 46.9 °F - 19.0 °F 33% 30.00 in - SW 6.9 mph - N/A   Unknown
6:53 PM 44.1 °F 40.8 °F 19.9 °F 38% 30.06 in - WNW 5.8 mph - N/A   Unknown
7:53 PM 41.0 °F 39.0 °F 19.9 °F 43% 30.07 in - NW 3.5 mph - N/A   Unknown
8:53 PM 39.0 °F 34.8 °F 19.9 °F 46% 30.06 in - NNW 5.8 mph - N/A   Unknown
9:53 PM 37.9 °F 33.5 °F 21.0 °F 51% 30.05 in - WNW 5.8 mph - N/A   Unknown
10:53 PM 30.9 °F - 19.0 °F 61% 30.06 in - Calm Calm - N/A   Unknown
11:53 PM 32.0 °F 27.5 °F 19.0 °F 59% 30.03 in - North 4.6 mph - N/A   Unknown